Location: Melizzano
(41.1500°N, 14.5000°E)
Time: 09:06:01
(UTC+00:00)

Cosmos 1709 Rocket - Pass Details

Date: 05 October 2021
Orbit: 948 x 1002 km, 82.9° (Epoch: 27 October)

Event Time Altitude Azimuth Distance (km) Brightness Sun altitude
Rises 02:04:51 0° 360° (N) 3,632 7.3 -33.4°
Reaches altitude 10° 02:07:33 10° 8° (N) 2,687 6.6 -33.0°
Maximum altitude 02:13:13 38° 76° (ENE) 1,423 5.2 -32.0°
Drops below altitude 10° 02:18:55 10° 143° (SE) 2,699 6.4 -31.0°
Sets 02:21:36 0° 151° (SSE) 3,650 7.1 -30.6°
